Content
SEND FEEDBACK

Daily
Averages
Monthly
Summary
United States of America

ST. LOUIS - GATEWAY ARCH, MISSOURI


Home > North America > United States > Missouri
Elevation: 450 feet     Latitude: 38 37N     Longitude: 090 11W

WEATHER
 
SELECT A DAY
Number of Records: 186,258;   Date Range: 1/1/95 - 8/30/14
 
SHARE

PRINT THIS DATA

[ ← Previous Day ]
WEATHER ALMANAC - FEBRUARY 22, 2013
[ Next Day → ]
[ °C ]   °F
Weather ElementAverageHighLow
Temperature33.1 °F36 °F (8:53 am)25 °F (9:53 pm)
Dewpoint26.4 °F32 °F (3:53 am)17.1 °F (11:53 pm)
Humidity77.5 %96 % (12:53 am)61 % (4:53 pm)
Barometer29.94 in30.10 in (9:53 pm)29.82 in (1:41 am)
Wind Speed5.7 mph13.8 mph (1:53 pm)
Wind Gust19.6 mph (11:53 am)
Weather ElementAverage
Visibility8.6 mi
Wind DirectionS (181.1 °)

Weather ElementTotal
Precipitation0.04 in
Heating Degree Days34.5 (Base 65)
Averaged from 37 records on February 22, 2013
WEATHER CONDITIONS BREAKOUT
WIND DIRECTION BREAKOUT
WEATHER BY HOUR - FEBRUARY 22, 2013
[ °C ]   °F
Local TimeTemperatureDewpointHumidityBarometerVisibilityWind DirectionWind SpeedGust SpeedPrecipitationEventsConditions
12:53 AM32.0 °F30.9 °F96 %29.85 in2.5 miCalmOvercast
1:09 AM32.0 °F30.2 °F93 %29.84 in1.8 miCalm0.01 inSnowLight Snow
1:41 AM32.0 °F30.2 °F93 %29.82 in2.5 miCalm0.01 inOvercast
1:51 AM32.0 °F30.2 °F93 %29.82 in3.0 miCalm0.01 inOvercast
1:53 AM32.0 °F30.9 °F96 %29.83 in4.0 miCalm0.01 inOvercast
2:53 AM33.1 °F30.9 °F92 %29.83 in5.0 miCalmOvercast
3:53 AM33.1 °F32.0 °F96 %29.83 in6.0 miCalmOvercast
4:20 AM33.8 °F30.2 °F87 %29.82 in5.0 miCalmOvercast
4:53 AM33.1 °F30.9 °F92 %29.85 in7.0 miCalmOvercast
5:27 AM33.8 °F30.2 °F87 %29.85 in10.0 miSW (230°)4.6 mphOvercast
5:53 AM35.1 °F30.9 °F85 %29.86 in10.0 miSSW (210°)6.9 mphOvercast
6:13 AM35.6 °F30.2 °F81 %29.85 in10.0 miSW (220°)5.8 mphOvercast
6:53 AM35.1 °F30.9 °F85 %29.89 in10.0 miSW (220°)8.1 mphOvercast
7:53 AM35.1 °F30.0 °F82 %29.91 in10.0 miSSW (210°)5.8 mphOvercast
8:01 AM35.6 °F30.2 °F81 %29.90 in10.0 miSW (220°)5.8 mphOvercast
8:53 AM36.0 °F30.9 °F82 %29.92 in10.0 miSW (220°)3.5 mphOvercast
9:51 AM35.6 °F30.2 °F81 %29.93 in10.0 miSSW (210°)6.9 mphOvercast
9:53 AM36.0 °F30.9 °F82 %29.94 in10.0 miSW (220°)5.8 mphOvercast
10:53 AM36.0 °F28.0 °F73 %29.96 in10.0 miWSW (240°)12.7 mph18.4 mphOvercast
11:17 AM35.6 °F26.6 °F70 %29.96 in10.0 miSW (230°)8.1 mphOvercast
11:37 AM35.6 °F26.6 °F70 %29.96 in10.0 miWest (260°)9.2 mphOvercast
11:53 AM35.1 °F25.0 °F67 %29.98 in10.0 miWSW (250°)9.2 mph19.6 mphOvercast
12:53 PM34.0 °F26.1 °F73 %29.99 in10.0 miWest (260°)12.7 mph18.4 mphOvercast
1:48 PM33.8 °F24.8 °F70 %29.98 in10.0 miWest (260°)10.4 mphOvercast
1:53 PM34.0 °F25.0 °F70 %29.99 in10.0 miWest (260°)13.8 mphOvercast
2:09 PM33.8 °F24.8 °F70 %29.99 in10.0 miWest (260°)11.5 mph17.3 mphOvercast
2:53 PM34.0 °F23.0 °F64 %30.00 in10.0 miWest (260°)9.2 mphOvercast
3:00 PM33.8 °F23.0 °F65 %30.00 in10.0 miWest (260°)10.4 mphOvercast
3:53 PM33.1 °F21.9 °F64 %30.01 in10.0 miWSW (240°)10.4 mphOvercast
4:53 PM33.1 °F21.0 °F61 %30.01 in10.0 miWest (260°)11.5 mphPartly Cloudy
5:53 PM33.1 °F21.0 °F61 %30.03 in10.0 miWest (270°)5.8 mphClear
6:53 PM30.9 °F19.9 °F64 %30.05 in10.0 miWNW (290°)5.8 mphClear
7:53 PM30.0 °F19.0 °F64 %30.06 in10.0 miCalmClear
8:53 PM28.9 °F18.0 °F64 %30.08 in10.0 miWest (280°)3.5 mphClear
9:53 PM25.0 °F18.0 °F75 %30.10 in10.0 miNW (320°)6.9 mphClear
10:53 PM26.1 °F18.0 °F71 %30.10 in10.0 miWest (270°)4.6 mphClear
11:53 PM26.1 °F17.1 °F69 %30.09 in10.0 miWest (270°)3.5 mphClear
Hourly data recorded from KCPS, located miles away from St. Louis - Gateway Arch, Missouri







STORIES FROM OUR PARTNERS